Regional Weather Roundup
Issued by NWS

Home | Current Version | Previous Version | Text Only | Print | Product List | Glossary Off
Versions: 1 2 3 4 5 6 7 8 9 10 11 12 13 14 15 16 17 18 19 20 21 22 23 24 25 26 27 28 29 30 31 32 33 34 35 36 37 38 39 40 41 42 43 44 45 46 47 48 49 50

000
ASUS43 KMPX 042101
RWRMN
WEATHER ROUNDUP FOR MINNESOTA
NATIONAL WEATHER SERVICE TWIN CITIES/CHANHASSEN MN
400 PM CDT MON MAY 04 2015


NOTE: "FAIR" INDICATES FEW OR NO CLOUDS BELOW 12,000 FEET WITH NO
SIGNIFICANT WEATHER AND/OR OBSTRUCTIONS TO VISIBILITY. N/A MEANS
CURRENT SKY AND/OR WEATHER CONDITIONS ARE NOT AVAILABLE.

MNZ060>063-068>070-042200-
   Twin Cities Metro

CITY           SKY/WX    TMP DP  RH WIND       PRES   REMARKS
TWIN CITIES    PTSUNNY   71  29  21 N9        30.17S
ST PAUL        MOSUNNY   70  29  21 N10       30.17F
CRYSTAL        SUNNY     71  26  18 VRB6      30.16F
LAKEVILLE      PTSUNNY   68  34  28 NE7       30.17S
EDEN PRAIRIE   MOSUNNY   70  35  27 E8        30.16S
SOUTH ST PAUL  MOSUNNY   71  28  20 NE7       30.17R
LAKE ELMO      FAIR      68  34  28 N5        30.18R
$$
MNZ001>005-007-008-013>017-022>024-027-028-042200-
   Northwest Minnesota

CITY           SKY/WX    TMP DP  RH WIND       PRES   REMARKS
BEMIDJI        SUNNY     64  25  22 SE3       30.19F
HALLOCK        SUNNY     66  21  18 CALM      30.17F
ROSEAU         MOSUNNY   64  25  22 NW6       30.18F
WARROAD        MOSUNNY   63  32  31 W8        30.18F
THIEF RVR FALL SUNNY     64  27  24 SW5       30.20F
CROOKSTON      SUNNY     66  27  22 N8        30.19F
FOSSTON        SUNNY     66  25  20 NW6       30.20F
DETROIT LAKES  PTSUNNY   64  28  25 CALM      30.21F
MOORHEAD       MOSUNNY   66  23  19 CALM      30.20F
PARK RAPIDS    PTSUNNY   64  28  25 VRB3      30.20F
MAHNOMEN       FAIR      67  26  21 W8        30.19F
$$
MNZ006-009>011-018-025>026-042200-
   North Central Minnesota

CITY           SKY/WX    TMP DP  RH WIND       PRES   REMARKS
BAUDETTE       MOSUNNY   62  27  26 NW5       30.19F
FLAG ISLAND    PTSUNNY   54  41  62 S17       30.15F
INTL FALLS     MOSUNNY   63  28  26 N13       30.20F
WASKISH        SUNNY     63  32  31 CALM      30.21F
BIG FORK       SUNNY     66  21  18 W7        30.19F
LONGVILLE      MOSUNNY   63  21  20 W8        30.21F
GRAND RAPIDS   MOSUNNY   64  25  22 W8        30.21S
CRANE LAKE     SUNNY     61  23  23 NW6G16    30.22S
ORR            SUNNY     64  19  17 CALM      30.17F
COOK           SUNNY     64  25  22 W9        30.19S
WALKER         FAIR      63  24  22 E6        30.20F
$$
MNZ012-019>021-037-042200-
   Northeast Minnesota

CITY           SKY/WX    TMP DP  RH WIND       PRES   REMARKS
DULUTH         PTSUNNY   66  18  15 N10       30.18F
ELY            SUNNY     63  19  19 NE8G18    30.18F
HIBBING        SUNNY     65  17  15 NW10      30.19S
EVELETH        SUNNY     63  19  19 NE7       30.20F
DULUTH HARBOR  PTSUNNY   66  12  12 E3        30.19S
TWO HARBORS    MOSUNNY   66  36  32 S10       30.16S
SILVER BAY     MOSUNNY   64  25  22 SE10      30.16S
GRAND MARAIS     N/A     44  36  73 SW14      30.17F
G MARAIS ARPRT SUNNY     63  21  20 NW6       30.18S
$$
MNZ029>031-032-039>041-046>048-054>057-064-042200-
   West Central Minnesota

CITY           SKY/WX    TMP DP  RH WIND       PRES   REMARKS
FERGUS FALLS   PTSUNNY   66  30  26 N7        30.20S
WHEATON        MOSUNNY   66  30  26 NE6       30.19F
MORRIS         MOSUNNY   70  25  18 E8        30.17F
ALEXANDRIA     PTSUNNY   66  29  24 MISG      30.21F
ELBOW LAKE     FAIR      65  31  27 CALM      30.19F
WADENA         CLOUDY    64  34  32 N7        30.20F
GLENWOOD       MOSUNNY   66  30  26 N7        30.20F
APPLETON       PTSUNNY   72  21  15 NE9G18    30.16F
BENSON         PTSUNNY   68  18  14 E7        30.18F
ORTONVILLE     PTSUNNY   70  21  16 NE3       30.17S
MADISON        PTSUNNY   72  21  15 NE8G16    30.16F
WILLMAR        FAIR      72  28  20 NE14      30.19S
$$
MNZ033>034-036-042>043-049>051-058-059-042200-
   Central Minnesota

CITY           SKY/WX    TMP DP  RH WIND       PRES   REMARKS
ST CLOUD       MOSUNNY   68  29  23 MISG      30.18F
SAUK CENTRE    FAIR      67  31  26 NW8       30.20F
PAYNESVILLE    MOSUNNY   65  31  27 N5        30.19F
AITKIN         PTSUNNY   66   0   7 N5        30.19F
PINE RIVER     PTSUNNY   61  32  33 CALM      30.24F
BRAINERD       MOSUNNY   64  27  24 N9        30.21F
STAPLES        PTSUNNY   64  28  25 E3        30.20F
LONG PRAIRIE   FAIR      66  32  28 NW7       30.20F
LITTLE FALLS   PTSUNNY   64  30  27 N5        30.20F
LITCHFIELD     MOSUNNY   70  27  19 CALM      30.18S
BUFFALO        MOSUNNY   69  26  19 N8        30.19S
MAPLE LAKE     MOSUNNY   69  36  29 N6        30.19S
$$
MNZ037-044-045-052-053-042200-
   East Central Minnesota

CITY           SKY/WX    TMP DP  RH WIND       PRES   REMARKS
PRINCETON      SUNNY     66  28  24 N7        30.19F
MORA           SUNNY     64  32  29 NW10      30.20F
CAMBRIDGE      SUNNY     70  45  40 N6        30.17S
RUSH CITY      SUNNY     68  30  23 N5        30.19S
MOOSE LAKE     PTSUNNY   64  27  24 NW3       30.18S
HINCKLEY       FAIR      66  28  24 N7G17     30.19S
CLOQUET        PTSUNNY   66  10  11 W8        30.19F
MCGREGOR       PTSUNNY   64  19  17 CALM      30.21S
$$
MNZ071>073-080-081-089-090-097-098-042200-
   Southwest Minnesota

CITY           SKY/WX    TMP DP  RH WIND       PRES   REMARKS
MONTEVIDEO     MOSUNNY   73  25  16 NE5       30.17F
GRANITE FALLS  MOSUNNY   70  27  20 N8        30.17F
CANBY          PTSUNNY   71  23  16 E8G18     30.16F
MARSHALL       MOSUNNY   72  27  18 NE12      30.15S
REDWOOD FALLS  MOSUNNY   74  24  15 N7        30.15F
OLIVIA         MOSUNNY   68  27  21 N15       30.16S
WORTHINGTON    CLOUDY    68  28  22 E15       30.16S
JACKSON        CLOUDY    70  23  17 NE15      30.16F
TRACY          PTSUNNY   73  28  18 E7        30.16S
SLAYTON        PTSUNNY   71  22  15 NE12G17   30.16F
$$
MNZ065>067-074>077-082>085-091>093-042200-
   South Central Minnesota

CITY           SKY/WX    TMP DP  RH WIND       PRES   REMARKS
MANKATO        PTSUNNY   66  34  30 NE13      30.17S
NEW ULM        PTSUNNY   70  25  18 NE6G18    30.16R
ST JAMES       PTSUNNY   70  21  16 E10       30.17S
FAIRMONT       CLOUDY    70  25  18 E14G22    30.15F
GLENCOE        MOSUNNY   72  34  24 NE10G16   30.16S
FARIBAULT      PTSUNNY   70  30  23 NE9G16    30.17S
OWATONNA       CLOUDY    66  30  26 NE13G18   30.17S
WASECA         CLOUDY    64  32  29 NE12      30.18S
ALBERT LEA     PTSUNNY   70  32  24 E13       30.16S
$$
MNZ078>079-086>088-094>096-042200-
   Southeast Minnesota

CITY           SKY/WX    TMP DP  RH WIND       PRES   REMARKS
ROCHESTER      CLOUDY    67  37  33 NE9       30.17F
RED WING       PTSUNNY   70  28  21 NE8       30.15S
STANTON        PTSUNNY   71  27  19 NE8       30.15F
DODGE CENTER   CLOUDY    66  32  28 NE10G18   30.17S
WINONA         PTSUNNY   70  36  28 CALM      30.16S
AUSTIN         PTSUNNY   66  39  37 NE8       30.16S
PRESTON        PTSUNNY   65  38  36 N7        30.16F
$$
ABBREVIATIONS USED IN REMARKS
   TC - TEMPERATURES IN CELSIUS
  WCI - WIND CHILL INDEX
   HX - HEAT INDEX
  VSB - VISIBILITY
$$


USA.gov is the U.S. government's official web portal to all federal, state and local government web resources and services.